Погода в Нуштайкине

Россия / Оренбургская область     53°36′28″N   52°13′42″E
темп.,
°C
ветер,
м/с
пор.,
м/с
влажн.,
%
обл.,
%
осадки,
мм/ч
давл.,
гПа
погр.,
м
17 мая, пн
пн1723:00+21всв225293 0.9 101914
02:00+18вюв225529 0.0 101911
05:00+19ююв22565 0.0 101935
08:00+21ююв255421 0.0 1019163
11:00+27ююз46395 0.0 1019588
14:00+30ююз46277 0.0 10191760
17:00+30юз342411 0.0 10183292
20:00+26ююз22404 0.0 101711
18 мая, вт
вт1823:00+21ю22363 0.0 101811
02:00+19зюз12353 0.0 101811
05:00+18ю11381 0.0 101811
08:00+23с00401 0.0 101852
11:00+27всв11330 0.0 1018438
14:00+30ссз22200 0.0 10172804
17:00+30с12215 0.0 10163274
20:00+27ссв11352 0.0 101611
19 мая, ср
ср1923:00+22в496310 0.0 1017343
02:00+19всв5127260 0.1 1017312
05:00+16всв512685 0.1 1017284
08:00+18всв511682 0.0 1018398
11:00+23в78530 0.0 1018944
14:00+25в78410 0.0 10181642
17:00+26вюв78390 0.0 10171772
20:00+22вюв49530 0.0 1018243
20 мая, чт
чт2023:00+17в412610 0.0 1019217
02:00+16юв514592 0.0 1020459
05:00+13вюв411695 0.0 1020234
08:00+16юв513625 0.0 1021513
11:00+20юв79445 0.0 10201159
14:00+23юв79350 0.0 10201858
17:00+23юв68340 0.0 10191953
20:00+20вюв375329 0.0 1018160
21 мая, пт
пт2123:00+16вюв345597 0.0 101964
02:00+15вюв3456100 0.0 101850
05:00+15в365542 0.0 1018103
08:00+17в365656 0.0 1019200
11:00+22вюв564067 0.0 1018907
14:00+24юв693823 0.0 10182403
17:00+25ю683710 0.0 10172493
20:00+22зюз225223 0.0 101737